Simultaneous Nadir Overpasses (SNOs) Predictions

Prediction of SNOs between GOES-16 and NPP Satellite Orbit:

Table of predicted SNOs for the next 14.0 days since TLE Epoch: 4/22/2023
Index Date Time (GOES-16) GOES-16 Lat,Lon NPP Lat,Lon Distance(km) Time Diff (sec)
1 04/22/2023 18:10:13 0.04, -75.20 0.97, -71.16 461.23 80
2 04/24/2023 06:34:38 -0.03, -75.20 0.24, -76.42 138.10 80
3 04/25/2023 06:13:13 -0.04, -75.21 -0.79, -71.89 378.74 80
4 04/26/2023 18:37:47 0.03, -75.21 -0.42, -77.18 225.37 80
5 04/27/2023 18:16:22 0.03, -75.21 0.62, -72.65 291.98 80
6 04/29/2023 06:40:47 -0.02, -75.23 0.58, -77.92 306.01 80
7 04/30/2023 06:19:22 -0.02, -75.24 -0.46, -73.39 211.78 80
8 05/01/2023 18:43:56 0.01, -75.25 -0.74, -78.69 390.98 80
9 05/02/2023 18:22:29 0.02, -75.27 0.25, -74.15 127.24 80
10 05/04/2023 06:46:56 -0.01, -75.30 0.88, -79.42 469.63 80
11 05/05/2023 06:25:29 -0.02, -75.31 -0.10, -74.88 48.71 80
